User: anonymous   Login
Location: Unspecified
(0.0000°N, 0.0000°E)
Time: 14:52:44
(UTC+00:00)
Language:

FO-29 - Orbit

View from above orbital plane
View from above orbital plane
View from above satellite
View from above satellite

Ground track
Ground track

The orbit data is extracted from the following two-line orbital elements,

1 24278U 96046B   17352.06449273 -.00000035  00000-0  15772-5 0  9997
2 24278  98.5333 210.5979 0349668 220.6511 136.8044 13.53080400 53741
Epoch (UTC): 18 December 2017 01:32:52
Eccentricity: 0.0349668
inclination: 98.5333°
perigee height: 801 km
apogee height: 1321 km
right ascension of ascending node: 210.5979°
argument of perigee: 220.6511°
revolutions per day: 13.53080400
mean anomaly at epoch: 136.8044°
orbit number at epoch: 5374

The dashed part of the orbit path shows where the satellite is in the earth's shadow,  

DLR